Location: ????????
(55.4000°N, 39.1167°E)
Time: 04:54:07
(UTC+00:00)

Cosmos 1842 - Pass Details

Date: 19 May 2025
Orbit: 439 x 450 km, 82.5° (Epoch: 19 June)

Event Time Altitude Azimuth Distance (km) Brightness Sun altitude
Exits shadow 20:32:13 25° 148° (SSE) 946 4.0 -14.0°
Maximum altitude 20:33:43 41° 95° (E) 674 3.6 -14.0°
Drops below altitude 10° 20:37:02 10° 24° (NNE) 1,603 6.6 -14.1°
Sets 20:39:11 0° 17° (NNE) 2,483 7.9 -14.1°
